Time,TemperatureF,DewpointF,PressureIn,WindDirection,WindDirectionDegrees,WindSpeedMPH,WindSpeedGustMPH,Humidity,HourlyPrecipIn,Conditions,Clouds,dailyrainin,SoftwareType,DateUTC
2013-04-29 00:02:00,52.0,-99.9,-100.00,NNW,330,3.0,7.0,-999,-99.99,,,-99.99,,2013-04-29 07:02:00,
2013-04-29 00:11:00,52.0,-99.9,-100.00,NNW,330,3.0,7.0,-999,-99.99,,,-99.99,,2013-04-29 07:11:00,
2013-04-29 01:03:00,50.0,-99.9,-100.00,NNE,31,2.0,6.0,-999,-99.99,,,-99.99,,2013-04-29 08:03:00,
2013-04-29 01:11:00,50.0,-99.9,-100.00,NNE,31,2.0,6.0,-999,-99.99,,,-99.99,,2013-04-29 08:11:00,
2013-04-29 02:02:00,51.0,-99.9,-100.00,NW,321,3.0,8.0,-999,-99.99,,,-99.99,,2013-04-29 09:02:00,
2013-04-29 02:12:00,51.0,-99.9,-100.00,NW,321,3.0,8.0,-999,-99.99,,,-99.99,,2013-04-29 09:12:00,
2013-04-29 03:03:00,56.0,-99.9,-100.00,WSW,243,12.0,20.0,-999,-99.99,,,-99.99,,2013-04-29 10:03:00,
2013-04-29 03:12:00,56.0,-99.9,-100.00,WSW,243,12.0,20.0,-999,-99.99,,,-99.99,,2013-04-29 10:12:00,
2013-04-29 04:03:00,55.0,-99.9,-100.00,WSW,249,9.0,20.0,-999,-99.99,,,-99.99,,2013-04-29 11:03:00,
2013-04-29 04:12:00,55.0,-99.9,-100.00,WSW,249,9.0,20.0,-999,-99.99,,,-99.99,,2013-04-29 11:12:00,
2013-04-29 05:02:00,54.0,-99.9,-100.00,WSW,245,10.0,14.0,-999,-99.99,,,-99.99,,2013-04-29 12:02:00,
2013-04-29 05:12:00,54.0,-99.9,-100.00,WSW,245,10.0,14.0,-999,-99.99,,,-99.99,,2013-04-29 12:12:00,
2013-04-29 06:01:00,55.0,-99.9,-100.00,WSW,246,21.0,33.0,-999,-99.99,,,-99.99,,2013-04-29 13:01:00,
2013-04-29 06:11:00,55.0,-99.9,-100.00,WSW,246,21.0,33.0,-999,-99.99,,,-99.99,,2013-04-29 13:11:00,
2013-04-29 07:02:00,54.0,-99.9,-100.00,West,266,16.0,29.0,-999,-99.99,,,-99.99,,2013-04-29 14:02:00,
2013-04-29 07:12:00,54.0,-99.9,-100.00,West,266,16.0,29.0,-999,-99.99,,,-99.99,,2013-04-29 14:12:00,
2013-04-29 09:03:00,57.0,-99.9,-100.00,West,274,18.0,29.0,-999,-99.99,,,-99.99,,2013-04-29 16:03:00,
2013-04-29 09:13:00,57.0,-99.9,-100.00,West,274,18.0,29.0,-999,-99.99,,,-99.99,,2013-04-29 16:13:00,
2013-04-29 10:02:00,58.0,-99.9,-100.00,West,267,27.0,39.0,-999,-99.99,,,-99.99,,2013-04-29 17:02:00,
2013-04-29 10:12:00,58.0,-99.9,-100.00,West,267,27.0,39.0,-999,-99.99,,,-99.99,,2013-04-29 17:12:00,
2013-04-29 11:01:00,61.0,-99.9,-100.00,West,269,22.0,32.0,-999,-99.99,,,-99.99,,2013-04-29 18:01:00,
2013-04-29 11:13:00,61.0,-99.9,-100.00,West,269,22.0,32.0,-999,-99.99,,,-99.99,,2013-04-29 18:13:00,
2013-04-29 12:01:00,61.0,-99.9,-100.00,West,269,23.0,36.0,-999,-99.99,,,-99.99,,2013-04-29 19:01:00,
2013-04-29 12:12:00,61.0,-99.9,-100.00,West,269,23.0,36.0,-999,-99.99,,,-99.99,,2013-04-29 19:12:00,
2013-04-29 13:02:00,59.0,-99.9,-100.00,NW,316,17.0,31.0,-999,-99.99,,,-99.99,,2013-04-29 20:02:00,
2013-04-29 13:12:00,59.0,-99.9,-100.00,NW,316,17.0,31.0,-999,-99.99,,,-99.99,,2013-04-29 20:12:00,
2013-04-29 14:02:00,60.0,-99.9,-100.00,NW,317,18.0,30.0,-999,-99.99,,,-99.99,,2013-04-29 21:02:00,
2013-04-29 14:12:00,60.0,-99.9,-100.00,NW,317,18.0,30.0,-999,-99.99,,,-99.99,,2013-04-29 21:12:00,
2013-04-29 15:03:00,61.0,-99.9,-100.00,NW,321,18.0,31.0,-999,-99.99,,,-99.99,,2013-04-29 22:03:00,
2013-04-29 15:13:00,61.0,-99.9,-100.00,NW,321,18.0,31.0,-999,-99.99,,,-99.99,,2013-04-29 22:13:00,
2013-04-29 16:02:00,60.0,-99.9,-100.00,NNW,327,18.0,33.0,-999,-99.99,,,-99.99,,2013-04-29 23:02:00,
2013-04-29 16:12:00,60.0,-99.9,-100.00,NNW,327,18.0,33.0,-999,-99.99,,,-99.99,,2013-04-29 23:12:00,
2013-04-29 17:01:00,58.0,-99.9,-100.00,NW,324,15.0,27.0,-999,-99.99,,,-99.99,,2013-04-30 00:01:00,
2013-04-29 17:12:00,58.0,-99.9,-100.00,NW,324,15.0,27.0,-999,-99.99,,,-99.99,,2013-04-30 00:12:00,
2013-04-29 18:02:00,55.0,-99.9,-100.00,NW,323,14.0,25.0,-999,-99.99,,,-99.99,,2013-04-30 01:02:00,
2013-04-29 18:12:00,55.0,-99.9,-100.00,NW,323,14.0,25.0,-999,-99.99,,,-99.99,,2013-04-30 01:12:00,
2013-04-29 20:01:00,54.0,-99.9,-100.00,NNW,329,13.0,25.0,-999,-99.99,,,-99.99,,2013-04-30 03:01:00,
2013-04-29 20:11:00,54.0,-99.9,-100.00,NNW,329,13.0,25.0,-999,-99.99,,,-99.99,,2013-04-30 03:11:00,
2013-04-29 23:02:00,45.0,-99.9,-100.00,NW,312,13.0,23.0,-999,-99.99,,,-99.99,,2013-04-30 06:02:00,
2013-04-29 23:12:00,45.0,-99.9,-100.00,NW,312,13.0,23.0,-999,-99.99,,,-99.99,,2013-04-30 06:12:00,